Washington, DC (20044)

12:42 AM EDT on September 05, 2015 (GMT -0400)
Logan Circle | | Change Station
CLOSE
Current Station
Personal Weather Station
Location: Washington, DC
Elevation: 108 ft
Nearby Weather Stations

Elev 108 ft 38.91 °N, 77.03 °W | Updated 2 seconds ago

Partly Cloudy
Partly Cloudy
76.0 °F
Feels Like 77 °F
N
0.0
Wind Variable Wind from North
Gusts 0.0 mph

Today
High -- | Low -- °F
--% Chance of Precip.
Yesterday
High -- | Low -- °F
Precip. -- in
6:40 AM 7:32 PM
Waning Gibbous, 52% visible
Pressure 30.14 in
Visibility 10.0 miles
Clouds Few 2000 ft
Mostly Cloudy 25000 ft
Heat Index 77 °F
Dew Point 68 °F
Humidity 76%
Rainfall 0.00 in
Snow Depth Not available.
UV 0 out of 12
Pollen 8.30 out of 12
Air Quality Not available.
Flu Activity Not available.
METAR KDCA 050352Z 08009KT 10SM FEW020 BKN250 25/22 A3014 RMK AO2 SLP206 T02500217
Pressure 30.14 in
Visibility 10.0 miles
Clouds Few 2000 ft
Mostly Cloudy 25000 ft
Heat Index 77 °F
Dew Point 68 °F
Humidity 76%
Rainfall 0.00 in
Snow Depth Not available.
UV 0 out of 12
Pollen 8.30 out of 12
Air Quality Not available.
Flu Activity Not available.
METAR KDCA 050352Z 08009KT 10SM FEW020 BKN250 25/22 A3014 RMK AO2 SLP206 T02500217

10-Day Weather Forecast

×

Almanac

Astronomy

Sep. 05, 2015 Rise Set
Actual Time
Civil Twilight
Nautical Twilight
Astronomical Twilight
Moon
Length of Visible Light
Length of Day
Tomorrow will be .
, % of the Moon is Illuminated

Today's Extremes

State Highs State Lows

Community

WunderPhotos

Upload Photos

1,852,426 photos uploaded!

WunderBlogs® & News

Nearby

Air Quality

  Air Quality AQ Index Pollutant
Not available.

Snow Depth

Station Depth Elevation

Earthquake Activity

City Distance Mag. Time & Date
Minimum magnitude displayed is 2.5.

Coastal Water Temperatures

Place Temperature

Stations

Nearby Weather Stations

Station Location Temp. Windchill Dew Point Humidity Wind Precip. Elev Updated Type